リニア彗星

C/2012 L2 ( LINEAR )

English version
Home page
Updated on June 15, 2014

---------------------------------------------------------------------

・ プロフィール

発見日 2012年6月1日
発見光度 19.4等
発見者 Lincoln Laboratory Near-Earth Asteroid Research project

・ 写真集

・ 軌道要素

Epoch 2013 May 28.0 TT = JDT 2456440.5
T 2013 May  9.32260 TT                                  MPC
q   1.5086427            (2000.0)            P               Q
z  +0.0017618      Peri.  205.77632     -0.14643666     -0.29114459
 +/-0.0000006      Node   270.30133     +0.98903171     -0.06173899
e   0.9973421      Incl.   70.98237     -0.01930226     -0.95468483
From 2048 observations 2012 June 1-2013 Oct. 12, mean residual 0".5.

・ 星図

・ 光度変化

        m1 = 7.0 + 5 logΔ + 12.5 log r  [   ,-58]  (              〜2013年 3月12日)
        m1 = 3.5 + 5 logΔ + 27.5 log r  [-58,   ]  (2013年 3月12日〜              )

---------------------------------------------------------------------

軌道要素はM.P.E.C. 2014-H26に掲載されたものです。
星図はステラナビゲータ Ver.8 (アストロアーツ) で作成したものです。
光度グラフはComet for Windowsで作成したものです。

---------------------------------------------------------------------

Copyright(C) Seiichi Yoshida (comet@aerith.net). All rights reserved.